AirNav   Everest Fuels
 
 1358 users online  

33CO Melby Ranch Airstrip
San Luis, Colorado, USA

GOING TO SAN LUIS?


FAA INFORMATION EFFECTIVE 28 FEBRUARY 2019

Location

FAA Identifier: 33CO
Lat/Long: 37-03-54.0000N / 105-27-49.0000W
37-03.900000N / 105-27.816667W
37.0650000 / -105.4636111
(estimated)
Elevation: 8820 ft. / 2688 m (estimated)
Variation: 11E (1995)
From city: 9 miles N of SAN LUIS, CO
Time zone: UTC -7 (UTC -6 during Daylight Saving Time)
Zip code: 81152

Airport Operations

Airport use: Private use. Permission required prior to landing
Activation date: 10/1996
Control tower: no
ARTCC: DENVER CENTER
FSS: DENVER FLIGHT SERVICE STATION
Attendance: UNATNDD
Wind indicator: yes
Segmented circle: no

Airport Communications

WX AWOS-3 at N24 (17 nm S): 118.2 (575-586-2019)

Nearby radio navigation aids

VOR radial/distance  VOR name  Freq  Var
ALSr122/23.9ALAMOSA VORTAC113.9013E
TASr025/34.7TAOS VORTAC117.6013E

Airport Services

Runway Information

Runway 3/21

Dimensions: 7400 x 40 ft. / 2256 x 12 m
Surface: turf
RUNWAY 3  RUNWAY 21
Traffic pattern: leftleft

Airport Ownership and Management from official FAA records

Ownership: Privately-owned
Owner: MELBY RANCH PROPERTIES, LLC
P.O. BOX 4159
VENTURA, CA 93007
Phone 800-858-8565
Manager: ANDREA MELBY
P.O. BOX 4159
VENTURA, CO 93007
Phone 805-647-5662

Instrument Procedures

There are no published instrument procedures at 33CO.

Some nearby airports with instrument procedures:

KALS - San Luis Valley Regional Airport/Bergman Field (29 nm NW)
KSKX - Taos Regional Airport (38 nm S)
KMVI - Monte Vista Municipal Airport (39 nm NW)
KAXX - Angel Fire Airport (39 nm S)
4V1 - Spanish Peaks Airfield (50 nm NE)
 
Loc | Ops | Rwys | IFR | FBO | Links
Com | Nav | Svcs | Stats | Notes
Area around 33CO (Melby Ranch Airstrip)
 
Road maps at: MapQuest Bing Google
 
Aerial photo
WARNING: Photo may not be current or correct
Aerial photo of 33CO (Melby Ranch Airstrip)
Photo by Sparky Imeson

Do you have a better or more recent aerial photo of Melby Ranch Airstrip that you would like to share? If so, please send us your photo.

 
Sectional chart

 
Airport distance calculator
Flying to Melby Ranch Airstrip? Find the distance to fly.

From to 33CO

Sunrise and sunset
Times for 21-Mar-2019
 Local
(UTC-6)
 Zulu
(UTC)
Morning civil twilight06:3912:39
Sunrise07:0513:05
Sunset19:1301:13
Evening civil twilight19:3901:39

Current date and time
Zulu (UTC)  21-Mar-2019 17:15:48
Local (UTC-6)  21-Mar-2019 11:15:48
 
METAR
3CO4 
21nm E 
SuperAWOS
211555Z AUTO 09008KT 10SM 03/M06 A3026
CO92 
21nm E 
SuperAWOS
211555Z AUTO 00000KT 10SM 04/M06 A3027
KALS 
29nm NW 
211652Z AUTO 26004KT 10SM BKN090 02/M07 A3023 RMK AO2 SLP238 T00221067
KSKX 
38nm S 
211656Z AUTO 21005KT 10SM BKN080 OVC090 05/M01 A3026 RMK AO2 SLP241 T00501011 $
KAXX 
39nm S 
211655Z AUTO 17009G17KT 150V210 10SM 02/M09 A3030 RMK AO2 T00211094
TAF
KALS 
29nm NW 
211133Z 2112/2212 VRB05KT P6SM SCT250 FM211400 18012KT P6SM SCT120 BKN200 FM212000 20015G25KT P6SM SCT050 BKN100 FM220100 19014KT P6SM VCSH BKN050 FM220600 16012KT P6SM VCSH OVC020 TEMPO 2208/2212 2SM -RASN BR OVC012
NOTAMs
Click for the latest NOTAMs
NOTAMs are issued by the DoD/FAA and will open in a separate window not controlled by AirNav.

 

 
 

Would you like to see your business listed on this page?

 If your business provides an interesting product or service to pilots, flight crews, aircraft, or users of the Melby Ranch Airstrip, you should consider listing it here.  To start the listing process, click on the button below
 
Add a business
 

Other Pages about Melby Ranch Airstrip

www.melbyranch.com/air.htm
 
Update a link
 
Copyright © AirNav, LLC. All rights reserved. Privacy Policy  Contact